BAW490 EGLL-LXGB

Flight info

Callsign BAW490
Flight time N/A
Altitude 37000
Route GOGSI N621 SAM M195 MARUK N621 LELNA DCT NOVAN DCT DELOG DCT CRISA DCT VULPE DCT MAR N864 PIMOS
Aircraft A320/M-SDE3FGHIRWY/LB1

Departure

Time 2026-05-04 09:02
Airport London Heathrow Airport (EGLL)

Arrival

Time N/A
Airport Gibraltar Airport (LXGB)
Time Latitude Longitude Altitude Speed Heading
2026-05-04 08:28 51.46899 -0.45938 91 ft 0 kts 55°
2026-05-04 08:50 51.46875 -0.46036 87 ft 4 kts 139°
2026-05-04 08:50 51.46869 -0.46031 87 ft 4 kts 145°
2026-05-04 08:51 51.46857 -0.46018 88 ft 0 kts 145°
2026-05-04 08:57 51.46749 -0.45770 86 ft 14 kts 90°
2026-05-04 09:01 51.46493 -0.43984 86 ft 49 kts 270°
2026-05-04 09:01 51.46490 -0.44905 89 ft 113 kts 270°
2026-05-04 09:01 51.46487 -0.46438 95 ft 159 kts 272°
2026-05-04 09:01 51.46489 -0.48270 593 ft 164 kts 271°
2026-05-04 09:02 51.46465 -0.50097 1275 ft 164 kts 270°
2026-05-04 09:02 51.46437 -0.52041 1606 ft 185 kts 269°
2026-05-04 09:02 51.46407 -0.54215 1952 ft 205 kts 269°
2026-05-04 09:02 51.46371 -0.56641 2260 ft 232 kts 269°
2026-05-04 09:03 51.46329 -0.59360 2745 ft 255 kts 269°
2026-05-04 09:03 51.46250 -0.62266 3508 ft 264 kts 261°
2026-05-04 09:03 51.45853 -0.65159 4440 ft 268 kts 257°
2026-05-04 09:03 51.45490 -0.68090 5403 ft 271 kts 265°
2026-05-04 09:04 51.45401 -0.71120 5816 ft 272 kts 268°
2026-05-04 09:04 51.45363 -0.74156 5971 ft 272 kts 269°
2026-05-04 09:04 51.45340 -0.77178 6001 ft 271 kts 267°
2026-05-04 09:04 51.44974 -0.80122 6075 ft 272 kts 247°
2026-05-04 09:05 51.44006 -0.82707 6972 ft 271 kts 230°
2026-05-04 09:05 51.42628 -0.84768 7881 ft 273 kts 219°
2026-05-04 09:05 51.41184 -0.86752 8779 ft 275 kts 218°
2026-05-04 09:05 51.39616 -0.88528 9644 ft 277 kts 214°
2026-05-04 09:06 51.37999 -0.90278 10301 ft 288 kts 214°